Location: Audinghen
(50.8518°N, 1.6129°E)
Time: 21:27:09
(UTC+00:00)

Cosmos 2228 - Pass Details

Date: 07 August 2020
Orbit: 588 x 619 km, 82.5° (Epoch: 22 September)

Event Time Altitude Azimuth Distance (km) Brightness Sun altitude
Rises 03:31:40 0° 169° (SSE) 2,863 6.2 -8.4°
Reaches altitude 10° 03:33:57 10° 162° (SSE) 1,968 5.4 -8.1°
Maximum altitude 03:38:02 41° 92° (E) 907 4.4 -7.6°
Drops below altitude 10° 03:42:10 10° 23° (NNE) 1,996 6.7 -7.1°
Sets 03:44:30 0° 16° (NNE) 2,909 7.5 -6.8°
